Regional Weather Roundup
Issued by NWS

Home | Current Version | Previous Version | Text Only | Print | Product List | Glossary Off
Versions: 1 2 3 4 5 6 7 8 9 10 11 12 13 14 15 16 17 18 19 20 21 22 23 24 25 26 27 28 29 30 31 32 33 34 35 36 37 38 39 40 41 42 43 44 45 46 47 48 49 50

778
ASUS43 KFSD 261302
RWRSD

WEATHER ROUNDUP FOR SOUTH DAKOTA
NATIONAL WEATHER SERVICE SIOUX FALLS SD
700 AM CST SUN FEB 26 2017

NOTE: "FAIR" INDICATES FEW OR NO CLOUDS BELOW 12,000 FEET WITH NO
SIGNIFICANT WEATHER AND/OR OBSTRUCTIONS TO VISIBILITY.


SDZ001>005-009-010-012>017-261400-
NORTHWEST AND NORTH CENTRAL SOUTH DAKOTA

CITY           SKY/WX    TMP DP  RH WIND       PRES   REMARKS
BUFFALO          N/A     19  12  74 W12       29.61S WCI   7
FAITH            N/A     21  16  81 W12       29.72R WCI   9
MOBRIDGE       CLEAR     16  11  80 E3        29.74R
$$

SDZ012>016-024>037-041>051-057-063-072>074-261400-
SOUTHWEST AND SOUTH CENTRAL SOUTH DAKOTA

CITY           SKY/WX    TMP DP  RH WIND       PRES   REMARKS
RAPID CTY ARPT CLEAR     15   8  73 CALM      29.74S
PIERRE         CLEAR     18  15  88 W5        29.77R WCI  11
CUSTER         CLEAR     12   7  80 W8        29.65S WCI   0
ELLSWORTH AFB  CLEAR     17  10  75 W7        29.73R WCI   7
PHILIP         CLEAR     17  11  77 W6        29.78R WCI   9
PINE RIDGE     CLEAR     15   4  61 W3        29.81R
SPEARFISH      FAIR      23  10  58 W10       29.70S WCI  12
WINNER         FAIR      21  14  74 SW10      29.79R WCI  10
$$

SDZ004>011-016>023-039-040-261400-
NORTHEAST SOUTH DAKOTA

CITY           SKY/WX    TMP DP  RH WIND       PRES   REMARKS
ABERDEEN       CLEAR     19  13  77 N14       29.78R WCI   6
WATERTOWN      CLOUDY    24  21  88 W12       29.72R WCI  13
BROOKINGS      CLEAR     24  21  88 W12       29.73R WCI  13
SISSETON         N/A     20  18  92 N18       29.74R WCI   5
$$

SDZ017-020-022-023-036>040-048>070-261400-
SOUTHEAST SOUTH DAKOTA

CITY           SKY/WX    TMP DP  RH WIND       PRES   REMARKS
SIOUX FALLS    PTCLDY    18  15  88 W5        29.77R WCI  11
HURON          CLEAR     20  19  96 W8        29.78R WCI  10
CHAMBERLAIN    CLEAR     22  19  87 W7        29.80R WCI  13
MITCHELL       CLEAR     22  18  85 W10       29.80R WCI  11
YANKTON        CLEAR     19   9  63 W9        29.82R WCI   9
$$

ABBREVIATIONS USED IN REMARKS
   TC - TEMPERATURE IN CELSIUS
  WCI - WIND CHILL INDEX
   HX - HEAT INDEX
  VSB - VISIBILITY





USA.gov is the U.S. government's official web portal to all federal, state and local government web resources and services.